Location: Penton Mewsey
(51.2167°N, 1.5167°W)
Time: 18:57:15
(UTC+00:00)

Cosmos 1726 Rocket - Pass Details

Date: 30 March 2020
Orbit: 602 x 631 km, 82.5° (Epoch: 04 June)

Event Time Altitude Azimuth Distance (km) Brightness Sun altitude
Exits shadow 21:10:44 61° 190° (S) 707 3.6 -22.7°
Maximum altitude 21:11:30 90° 298° (WNW) 628 3.4 -22.8°
Drops below altitude 10° 21:15:58 10° 10° (N) 2,008 6.5 -23.3°
Sets 21:18:13 0° 11° (N) 2,924 7.4 -23.5°
